EW7239 Weather Reports


Display with metric or nautical units.
time (UTC)temp
F
wind
direction
speed
MPH
gust
MPH
rain 1hr
in
rain 24hr
in
rain mn
in
humidity
%
barometer
mb
20260903053240 67 223 0.0 2.0 0.00 0.00 0.00 72 1015.7
20260903052739 67 223 1.0 4.0 0.00 0.00 0.00 72 1015.7
20260903052507 68 223 2.0 4.0 0.00 0.00 0.00 73 1015.6
20260903051736 68 223 3.0 6.0 0.00 0.00 0.00 72 1015.6
20260903051510 68 223 3.0 6.0 0.00 0.00 0.00 72 1015.5
20260903051035 68 223 4.0 8.0 0.00 0.00 0.00 71 1015.4
20260903050516 69 223 4.0 9.0 0.00 0.00 0.00 71 1015.3
20260903050426 69 223 5.0 9.0 0.00 0.00 0.00 71 1015.4
20260903050123 69 217 5.0 10.0 0.00 0.00 0.00 71 1015.3
20260903045845 69 223 5.0 9.0 0.00 0.00 0.00 71 1015.3
20260903045748 69 219 5.0 9.0 0.00 0.00 0.00 71 1015.4
20260903043507 69 217 5.0 11.0 0.00 0.00 0.00 71 1015.3
20260903043247 69 217 5.0 11.0 0.00 0.00 0.00 71 1015.3
20260903043008 69 219 5.0 11.0 0.00 0.00 0.00 70 1015.2
20260903042749 69 219 5.0 11.0 0.00 0.00 0.00 70 1015.2
20260903042249 70 225 5.0 10.0 0.00 0.00 0.00 70 1015.1
20260903041735 70 218 5.0 10.0 0.00 0.00 0.00 70 1015.1
20260903041507 70 228 6.0 10.0 0.00 0.00 0.00 69 1015.1
20260903040733 70 227 6.0 9.0 0.00 0.00 0.00 69 1015.1
20260903040708 71 218 4.0 8.0 0.00 0.00 0.00 66 1014.8
20260903040621 70 215 5.0 9.0 0.00 0.00 0.00 68 1015.0
20260903040512 71 219 5.0 9.0 0.00 0.00 0.00 68 1014.9
20260903040417 71 216 5.0 9.0 0.00 0.00 0.00 67 1014.9
20260903034500 71 217 5.0 10.0 0.00 0.00 0.00 65 1014.7
20260903033729 72 218 6.0 10.0 0.00 0.00 0.00 65 1014.7
20260903033500 72 222 6.0 10.0 0.00 0.00 0.00 64 1014.5
20260903032955 72 221 6.0 11.0 0.00 0.00 0.00 64 1014.4
20260903032225 72 222 5.0 11.0 0.00 0.00 0.00 63 1014.4
20260903031725 73 223 6.0 9.0 0.00 0.00 0.00 62 1014.4
20260903031226 73 223 6.0 10.0 0.00 0.00 0.00 62 1014.3
20260903030721 73 219 7.0 12.0 0.00 0.00 0.00 61 1014.3
20260903030222 73 223 7.0 12.0 0.00 0.00 0.00 60 1014.3
20260903025721 74 218 7.0 12.0 0.00 0.00 0.00 59 1014.3
20260903025452 74 225 7.0 12.0 0.00 0.00 0.00 58 1014.2
20260903024717 75 212 8.0 12.0 0.00 0.00 0.00 56 1014.2
20260903024217 75 224 8.0 14.0 0.00 0.00 0.00 55 1014.1
20260903023948 75 225 8.0 14.0 0.00 0.00 0.00 54 1014.0
20260903023759 75 225 8.0 14.0 0.00 0.00 0.00 54 1014.0
20260903023217 76 235 9.0 14.0 0.00 0.00 0.00 53 1014.0
20260903022943 76 224 9.0 15.0 0.00 0.00 0.00 52 1013.9
20260903022213 76 213 8.0 15.0 0.00 0.00 0.00 50 1013.9
20260903021944 77 227 8.0 14.0 0.00 0.00 0.00 48 1013.9
20260903021213 77 230 9.0 14.0 0.00 0.00 0.00 47 1013.9
20260903020712 77 225 8.0 13.0 0.00 0.00 0.00 45 1013.9
20260903020444 78 238 7.0 12.0 0.00 0.00 0.00 43 1013.9
20260903015712 78 215 8.0 15.0 0.00 0.00 0.00 42 1013.8
20260903015212 78 232 9.0 15.0 0.00 0.00 0.00 41 1013.8
20260903014712 79 238 9.0 16.0 0.00 0.00 0.00 39 1013.8
20260903014212 79 214 9.0 16.0 0.00 0.00 0.00 39 1013.8
20260903013713 80 223 8.0 14.0 0.00 0.00 0.00 38 1013.7
20260903013213 80 219 7.0 12.0 0.00 0.00 0.00 38 1013.7
20260903012940 80 226 7.0 12.0 0.00 0.00 0.00 37 1013.8
20260903012209 80 220 7.0 15.0 0.00 0.00 0.00 38 1013.7
20260903011709 81 201 8.0 15.0 0.00 0.00 0.00 39 1013.7
20260903011210 81 217 9.0 16.0 0.00 0.00 0.00 40 1013.7
20260903010935 81 221 9.0 16.0 0.00 0.00 0.00 40 1013.7
20260903010205 81 217 10.0 15.0 0.00 0.00 0.00 41 1013.7
20260903005936 82 224 8.0 15.0 0.00 0.00 0.00 40 1013.6
20260903004701 83 232 8.0 16.0 0.00 0.00 0.00 41 1013.6
20260903004201 83 219 9.0 14.0 0.00 0.00 0.00 41 1013.6
20260903003932 83 224 8.0 16.0 0.00 0.00 0.00 41 1013.5
20260903003202 84 214 7.0 16.0 0.00 0.00 0.00 40 1013.6
20260903002656 84 236 8.0 13.0 0.00 0.00 0.00 40 1013.5
20260903002158 84 235 9.0 16.0 0.00 0.00 0.00 39 1013.6
20260903001710 84 221 10.0 16.0 0.00 0.00 0.00 39 1013.5
20260903001211 84 227 9.0 14.0 0.00 0.00 0.00 38 1013.5
20260903000652 84 216 9.0 16.0 0.00 0.00 0.00 38 1013.6
20260903000154 85 242 8.0 16.0 0.00 0.00 0.00 37 1013.6
20260902235654 85 222 7.0 14.0 0.00 0.00 0.00 40 1013.6
20260902234649 86 213 7.0 15.0 0.00 0.00 0.00 39 1013.7
20260902234420 86 219 7.0 14.0 0.00 0.00 0.00 39 1013.7
20260902233718 86 253 8.0 14.0 0.00 0.00 0.00 40 1013.7
20260902233150 86 220 8.0 12.0 0.00 0.00 0.00 38 1013.7
20260902232916 86 266 7.0 11.0 0.00 0.00 0.00 38 1013.7
20260902232416 87 229 6.0 15.0 0.00 0.00 0.00 37 1013.7
20260902231917 87 202 7.0 15.0 0.00 0.00 0.00 36 1013.8
20260902231145 87 221 7.0 13.0 0.00 0.00 0.00 37 1013.8
20260902230641 86 221 8.0 15.0 0.00 0.00 0.00 36 1013.8
20260902230412 87 215 8.0 15.0 0.00 0.00 0.00 36 1013.9
20260902225641 88 221 7.0 15.0 0.00 0.00 0.00 33 1013.9
20260902225141 88 218 7.0 15.0 0.00 0.00 0.00 32 1013.9
20260902224138 89 201 6.0 12.0 0.00 0.00 0.00 30 1014.0
20260902223638 88 217 6.0 13.0 0.00 0.00 0.00 29 1014.0
20260902223408 88 225 7.0 14.0 0.00 0.00 0.00 29 1014.1
20260902222632 88 221 7.0 14.0 0.00 0.00 0.00 30 1014.2
20260902222133 88 223 7.0 13.0 0.00 0.00 0.00 27 1014.3
20260902221633 88 217 6.0 13.0 0.00 0.00 0.00 29 1014.3
20260902221133 88 219 7.0 12.0 0.00 0.00 0.00 30 1014.4
20260902220628 88 215 7.0 14.0 0.00 0.00 0.00 29 1014.4
20260902220129 89 202 7.0 14.0 0.00 0.00 0.00 28 1014.5
20260902215901 88 248 6.0 13.0 0.00 0.00 0.00 28 1014.5
20260902215635 88 248 6.0 13.0 0.00 0.00 0.00 28 1014.5
20260902215147 87 224 6.0 13.0 0.00 0.00 0.00 28 1014.5
20260902214625 88 226 6.0 13.0 0.00 0.00 0.00 28 1014.6
20260902214125 88 209 6.0 11.0 0.00 0.00 0.00 29 1014.6
20260902213625 88 220 6.0 11.0 0.00 0.00 0.00 28 1014.6
20260902213125 89 215 5.0 14.0 0.00 0.00 0.00 29 1014.6
20260902212620 88 229 5.0 14.0 0.00 0.00 0.00 29 1014.7
20260902212121 88 229 6.0 12.0 0.00 0.00 0.00 30 1014.7
20260902211852 87 201 6.0 11.0 0.00 0.00 0.00 29 1014.8
20260902211122 87 223 4.0 11.0 0.00 0.00 0.00 31 1014.9
20260902210618 86 225 5.0 11.0 0.00 0.00 0.00 31 1014.9
20260902210117 86 237 7.0 13.0 0.00 0.00 0.00 33 1015.0
20260902205848 87 221 6.0 13.0 0.00 0.00 0.00 33 1015.1
20260902205118 87 227 5.0 11.0 0.00 0.00 0.00 33 1015.2
20260902204612 86 238 5.0 10.0 0.00 0.00 0.00 35 1015.2
20260902203613 86 257 5.0 10.0 0.00 0.00 0.00 34 1015.3
20260902203114 86 221 5.0 10.0 0.00 0.00 0.00 34 1015.2
20260902202839 86 202 4.0 10.0 0.00 0.00 0.00 35 1015.3
20260902202109 86 223 5.0 11.0 0.00 0.00 0.00 36 1015.3
20260902201609 86 254 5.0 11.0 0.00 0.00 0.00 37 1015.4
20260902201109 86 236 3.0 8.0 0.00 0.00 0.00 37 1015.5
20260902200605 86 236 4.0 8.0 0.00 0.00 0.00 37 1015.6
20260902200106 86 229 4.0 9.0 0.00 0.00 0.00 37 1015.6
20260902195606 85 213 5.0 10.0 0.00 0.00 0.00 33 1015.7
20260902195106 84 223 4.0 11.0 0.00 0.00 0.00 34 1015.7
20260902194600 84 224 5.0 11.0 0.00 0.00 0.00 37 1015.8
20260902194101 84 220 5.0 9.0 0.00 0.00 0.00 36 1015.8
20260902193601 84 220 5.0 9.0 0.00 0.00 0.00 35 1015.9
20260902193101 84 255 5.0 10.0 0.00 0.00 0.00 36 1015.9
20260902192556 83 259 5.0 12.0 0.00 0.00 0.00 38 1016.0
20260902192057 83 257 5.0 12.0 0.00 0.00 0.00 36 1016.1
20260902191557 83 221 4.0 10.0 0.00 0.00 0.00 38 1016.2
20260902191057 82 239 4.0 7.0 0.00 0.00 0.00 39 1016.2
20260902190553 82 221 5.0 10.0 0.00 0.00 0.00 37 1016.3
20260902190106 82 221 6.0 11.0 0.00 0.00 0.00 38 1016.3
20260902185053 83 237 3.0 9.0 0.00 0.00 0.00 39 1016.3
20260902184552 82 241 3.0 7.0 0.00 0.00 0.00 39 1016.3
20260902184049 82 248 4.0 7.0 0.00 0.00 0.00 40 1016.4
20260902183820 82 248 4.0 7.0 0.00 0.00 0.00 40 1016.5
20260902183050 81 244 3.0 7.0 0.00 0.00 0.00 39 1016.6
20260902182815 81 240 3.0 8.0 0.00 0.00 0.00 41 1016.8
20260902182045 80 240 3.0 8.0 0.00 0.00 0.00 43 1016.6
20260902181545 80 234 3.0 7.0 0.00 0.00 0.00 42 1016.6
20260902181046 79 234 3.0 7.0 0.00 0.00 0.00 43 1016.8
20260902180812 78 236 3.0 6.0 0.00 0.00 0.00 44 1016.8
20260902180042 78 235 3.0 7.0 0.00 0.00 0.00 43 1016.8
20260902175541 78 235 3.0 7.0 0.00 0.00 0.00 46 1016.9
20260902174537 78 227 2.0 6.0 0.00 0.00 0.00 49 1016.9
20260902174037 78 227 2.0 7.0 0.00 0.00 0.00 50 1016.8
20260902173540 77 227 2.0 7.0 0.00 0.00 0.00 51 1016.9
20260902173308 77 227 2.0 5.0 0.00 0.00 0.00 51 1016.9
20260902172534 77 227 2.0 5.0 0.00 0.00 0.00 53 1016.9
20260902172308 76 226 1.0 5.0 0.00 0.00 0.00 53 1016.9
20260902171533 75 226 2.0 5.0 0.00 0.00 0.00 55 1016.9
20260902171033 75 226 3.0 5.0 0.00 0.00 0.00 55 1016.9
20260902170759 74 226 2.0 5.0 0.00 0.00 0.00 56 1016.8
20260902170544 74 226 2.0 5.0 0.00 0.00 0.00 56 1016.8
20260902170030 74 226 2.0 4.0 0.00 0.00 0.00 59 1016.8
20260902165529 73 227 2.0 5.0 0.00 0.00 0.00 61 1016.9
20260902165300 72 227 3.0 5.0 0.00 0.00 0.00 61 1016.8
20260902164524 72 227 2.0 6.0 0.00 0.00 0.00 63 1016.8
20260902164028 72 227 1.0 6.0 0.00 0.00 0.00 64 1016.8
20260902163757 71 227 2.0 4.0 0.00 0.00 0.00 67 1016.8
20260902163026 71 227 2.0 5.0 0.00 0.00 0.00 68 1016.8
20260902162753 71 227 2.0 5.0 0.00 0.00 0.00 68 1016.8
20260902162021 70 227 2.0 5.0 0.00 0.00 0.00 70 1016.8
20260902161522 70 227 2.0 5.0 0.00 0.00 0.00 72 1016.6
20260902160517 69 227 2.0 5.0 0.00 0.00 0.00 75 1016.6
20260902160252 68 226 3.0 5.0 0.00 0.00 0.00 76 1016.8
20260902155749 68 226 2.0 5.0 0.00 0.00 0.00 77 1016.8
20260902155018 68 226 2.0 5.0 0.00 0.00 0.00 77 1016.8
20260902154512 68 227 2.0 5.0 0.00 0.00 0.00 78 1016.8
20260902154014 67 226 2.0 5.0 0.00 0.00 0.00 78 1016.8
20260902153513 67 226 2.0 5.0 0.00 0.00 0.00 79 1016.8
20260902153244 67 226 2.0 4.0 0.00 0.00 0.00 79 1016.8
20260902152512 67 226 2.0 5.0 0.00 0.00 0.00 78 1016.6
20260902151514 67 226 1.0 5.0 0.00 0.00 0.00 79 1016.5
20260902151009 66 226 2.0 5.0 0.00 0.00 0.00 79 1016.5
20260902150010 66 229 2.0 5.0 0.00 0.00 0.00 79 1016.5
20260902145509 66 229 2.0 5.0 0.00 0.00 0.00 79 1016.6
20260902145005 66 229 1.0 4.0 0.00 0.00 0.00 79 1016.6
20260902144737 66 229 1.0 5.0 0.00 0.00 0.00 79 1016.6
20260902144006 66 229 1.0 5.0 0.00 0.00 0.00 79 1016.4
20260902143736 66 229 0.0 5.0 0.00 0.00 0.00 79 1016.5
20260902143001 65 236 0.0 4.0 0.00 0.00 0.00 79 1016.4
20260902142732 65 236 0.0 4.0 0.00 0.00 0.00 79 1016.4
20260902141501 65 236 0.0 3.0 0.00 0.00 0.00 81 1016.3
20260902141228 65 236 0.0 2.0 0.00 0.00 0.00 81 1016.2
20260902140559 64 236 0.0 2.0 0.00 0.00 0.00 81 1016.2
20260902135504 64 236 0.0 0.0 0.00 0.00 0.00 81 1016.2
20260902134454 64 236 0.0 0.0 0.00 0.00 0.00 82 1016.1
20260902133954 64 236 0.0 0.0 0.00 0.00 0.00 82 1016.0
20260902133454 64 236 0.0 0.0 0.00 0.00 0.00 81 1016.1
20260902132950 64 236 0.0 0.0 0.00 0.00 0.00 82 1016.1
20260902132720 64 236 0.0 0.0 0.00 0.00 0.00 81 1016.1
20260902131949 64 236 0.0 0.0 0.00 0.00 0.00 82 1016.0
20260902131449 64 236 0.0 0.0 0.00 0.00 0.00 82 1016.0
20260902130945 64 236 0.0 0.0 0.00 0.00 0.00 82 1016.0
20260902130445 64 236 0.0 0.0 0.00 0.00 0.00 82 1016.0
20260902125946 64 236 0.0 0.0 0.00 0.00 0.00 82 1016.1
20260902125445 64 236 0.0 0.0 0.00 0.00 0.00 82 1016.1
20260902124941 64 236 0.0 0.0 0.00 0.00 0.00 82 1016.2
20260902124441 64 236 0.0 0.0 0.00 0.00 0.00 82 1016.2
20260902123941 64 236 0.0 0.0 0.00 0.00 0.00 82 1016.2
20260902123441 64 236 0.0 0.0 0.00 0.00 0.00 82 1016.2
20260902122936 64 236 0.0 0.0 0.00 0.00 0.00 82 1016.2
20260902122437 64 236 0.0 1.0 0.00 0.00 0.00 82 1016.2
20260902121937 64 236 0.0 3.0 0.00 0.00 0.00 82 1016.1
20260902121437 64 236 0.0 3.0 0.00 0.00 0.00 82 1016.2
20260902120933 64 236 0.0 1.0 0.00 0.00 0.00 82 1016.1
20260902120433 64 236 0.0 3.0 0.00 0.00 0.00 82 1016.1
20260902115933 64 236 1.0 3.0 0.00 0.00 0.00 83 1016.2
20260902115433 64 236 1.0 4.0 0.00 0.00 0.00 83 1016.2
20260902115200 64 236 1.0 4.0 0.00 0.00 0.00 83 1016.2
20260902114429 63 236 0.0 3.0 0.00 0.00 0.00 83 1016.2
20260902113929 63 236 0.0 0.0 0.00 0.00 0.00 83 1016.2
20260902113442 63 236 0.0 0.0 0.00 0.00 0.00 83 1016.3
20260902112925 63 236 0.0 0.0 0.00 0.00 0.00 83 1016.2
20260902112425 63 236 0.0 0.0 0.00 0.00 0.00 83 1016.3
20260902112209 63 236 0.0 0.0 0.00 0.00 0.00 83 1016.3
20260902111425 63 236 0.0 0.0 0.00 0.00 0.00 83 1016.3
20260902110921 63 236 0.0 0.0 0.00 0.00 0.00 82 1016.3
20260902110421 63 236 0.0 0.0 0.00 0.00 0.00 83 1016.3
20260902105921 63 236 0.0 0.0 0.00 0.00 0.00 83 1016.4
20260902105422 63 236 0.0 0.0 0.00 0.00 0.00 83 1016.4
20260902105146 63 236 0.0 0.0 0.00 0.00 0.00 83 1016.5
20260902104649 63 236 0.0 0.0 0.00 0.00 0.00 82 1016.6
20260902103918 63 236 0.0 0.0 0.00 0.00 0.00 82 1016.6
20260902103417 63 236 0.0 0.0 0.00 0.00 0.00 83 1016.6
20260902102913 63 236 0.0 0.0 0.00 0.00 0.00 83 1016.6
20260902102644 63 236 0.0 0.0 0.00 0.00 0.00 83 1016.6
20260902101413 63 236 0.0 0.0 0.00 0.00 0.00 82 1016.8
20260902100908 63 236 0.0 0.0 0.00 0.00 0.00 82 1016.8
20260902100409 63 236 0.0 0.0 0.00 0.00 0.00 82 1016.8
20260902095909 63 236 0.0 0.0 0.00 0.00 0.00 82 1016.8
20260902095410 64 236 0.0 0.0 0.00 0.00 0.00 82 1016.6
20260902094904 63 236 0.0 0.0 0.00 0.00 0.00 82 1016.8
20260902094405 64 236 0.0 0.0 0.00 0.00 0.00 81 1016.8
20260902093905 64 236 0.0 0.0 0.00 0.00 0.00 81 1016.8
20260902093405 64 236 0.0 3.0 0.00 0.00 0.00 81 1016.8
20260902093132 64 236 0.0 3.0 0.00 0.00 0.00 82 1016.8
20260902092401 64 236 0.0 0.0 0.00 0.00 0.00 81 1016.8
20260902091901 64 236 0.0 0.0 0.00 0.00 0.00 81 1016.8
20260902091401 64 236 0.0 0.0 0.00 0.00 0.00 81 1016.6
20260902090857 64 236 0.0 0.0 0.00 0.00 0.00 81 1016.6
20260902090358 64 236 0.0 0.0 0.00 0.00 0.00 81 1016.5
20260902085857 64 236 0.0 0.0 0.00 0.00 0.00 81 1016.5
20260902085358 64 236 0.0 2.0 0.00 0.00 0.00 81 1016.6
20260902085122 64 236 0.0 4.0 0.00 0.00 0.00 81 1016.6
20260902084353 64 236 1.0 4.0 0.00 0.00 0.00 80 1016.6
20260902083853 64 236 2.0 4.0 0.00 0.00 0.00 80 1016.8
20260902083353 65 236 2.0 4.0 0.00 0.00 0.00 80 1016.6
20260902082848 65 236 1.0 3.0 0.00 0.00 0.00 80 1016.8
20260902081850 65 236 2.0 4.0 0.00 0.00 0.00 80 1016.8
20260902081349 65 236 2.0 4.0 0.00 0.00 0.00 80 1016.8
20260902080845 65 236 1.0 4.0 0.00 0.00 0.00 79 1016.8
20260902080345 65 236 1.0 4.0 0.00 0.00 0.00 79 1016.8
20260902075845 65 236 1.0 3.0 0.00 0.00 0.00 79 1016.6
20260902075616 65 236 2.0 5.0 0.00 0.00 0.00 79 1016.5
20260902074841 65 236 2.0 5.0 0.00 0.00 0.00 79 1016.5
20260902074355 65 236 1.0 4.0 0.00 0.00 0.00 78 1016.4
20260902073842 65 236 1.0 3.0 0.00 0.00 0.00 78 1016.3
20260902073342 66 236 1.0 3.0 0.00 0.00 0.00 78 1016.3
20260902072837 66 236 2.0 3.0 0.00 0.00 0.00 78 1016.3
20260902072337 66 236 2.0 3.0 0.00 0.00 0.00 77 1016.2
20260902071837 66 236 2.0 3.0 0.00 0.00 0.00 77 1016.2
20260902071338 66 236 2.0 5.0 0.00 0.00 0.00 77 1016.1
20260902070834 66 236 2.0 5.0 0.00 0.00 0.00 76 1016.1
20260902070604 66 236 2.0 4.0 0.00 0.00 0.00 76 1016.0
20260902065332 67 236 2.0 4.0 0.00 0.00 0.00 75 1016.1
20260902064830 67 236 3.0 5.0 0.00 0.00 0.00 75 1016.1
20260902064330 67 236 3.0 5.0 0.00 0.00 0.00 75 1016.0
20260902063831 67 236 3.0 5.0 0.00 0.00 0.00 74 1016.0
20260902063329 67 236 3.0 5.0 0.00 0.00 0.00 74 1016.0
20260902062828 67 236 3.0 5.0 0.00 0.00 0.00 73 1015.9
20260902062327 67 236 3.0 5.0 0.00 0.00 0.00 73 1015.9
20260902061827 67 236 3.0 5.0 0.00 0.00 0.00 73 1015.9
20260902060823 68 236 3.0 6.0 0.00 0.00 0.00 72 1015.9
20260902060320 68 236 3.0 4.0 0.00 0.00 0.00 72 1015.9
20260902060052 68 236 3.0 7.0 0.00 0.00 0.00 71 1015.9
20260902055319 68 236 2.0 7.0 0.00 0.00 0.00 71 1015.8
20260902054818 68 240 2.0 4.0 0.00 0.00 0.00 70 1015.9
20260902054318 68 240 2.0 4.0 0.00 0.00 0.00 70 1015.9
20260902053820 68 240 2.0 5.0 0.00 0.00 0.00 70 1015.7